This is the latest recevied weather packets stored in our database for station/object KD4WLE. If no packets are shown the sender has not sent any weather packets the latest 10 day(s).
| Time | Temp. | Humidity | Pressure | Rain* | Wind** | Luminosity | Snow |
|---|---|---|---|---|---|---|---|
| 1777791974 | 18.33° C | 99% | 1015 hPa | 0 mm | - | 0 W/m² | - |
| 1777791672 | 18.33° C | 99% | 1015 hPa | 0 mm | - | 0 W/m² | - |
| 1777791369 | 18.33° C | 99% | 1014.8 hPa | 0 mm | - | 0 W/m² | - |
| 1777791066 | 18.33° C | 99% | 1015.1 hPa | 0 mm | - | 0 W/m² | - |
| 1777790763 | 18.33° C | 99% | 1015 hPa | 0 mm | - | 0 W/m² | - |
| 1777790460 | 18.33° C | 99% | 1015 hPa | 0 mm | - | 0 W/m² | - |
| 1777790157 | 18.33° C | 99% | 1015.1 hPa | 0 mm | - | 0 W/m² | - |
| 1777789856 | 18.33° C | 99% | 1015.2 hPa | 0 mm | - | 0 W/m² | - |
| 1777789554 | 18.33° C | 99% | 1015.2 hPa | 0 mm | - | 0 W/m² | - |
| 1777789252 | 18.33° C | 99% | 1015.2 hPa | 0 mm | - | 0 W/m² | - |
| 1777788948 | 18.33° C | 99% | 1015.3 hPa | 0 mm | - | 0 W/m² | - |
| 1777788645 | 18.33° C | 99% | 1015.4 hPa | 1.27 mm | - | 0 W/m² | - |
| 1777788344 | 18.33° C | 99% | 1015.7 hPa | 1.27 mm | - | 0 W/m² | - |
| 1777788041 | 18.33° C | 99% | 1015.5 hPa | 0 mm | - | 0 W/m² | - |
| 1777787736 | 18.89° C | 99% | 1015.6 hPa | 0 mm | - | 0 W/m² | - |
| 1777787432 | 18.89° C | 99% | 1015.8 hPa | 0 mm | - | 0 W/m² | - |
| 1777787128 | 18.89° C | 99% | 1015.9 hPa | 1.78 mm | - | 0 W/m² | - |
| 1777786826 | 18.89° C | 99% | 1015.8 hPa | 1.78 mm | - | 0 W/m² | - |
| 1777786524 | 18.89° C | 99% | 1015.6 hPa | 0 mm | - | 0 W/m² | - |
| 1777786221 | 18.89° C | 99% | 1015.8 hPa | 0 mm | - | 0 W/m² | - |
| 1777785918 | 18.89° C | 99% | 1015.8 hPa | 1.27 mm | - | 0 W/m² | - |
| 1777785614 | 18.89° C | 99% | 1015.7 hPa | 1.27 mm | - | 0 W/m² | - |
| 1777785310 | 18.89° C | 99% | 1015.7 hPa | 1.78 mm | - | 0 W/m² | - |
| 1777785008 | 18.89° C | 99% | 1015.7 hPa | 3.05 mm | - | 0 W/m² | - |
| 1777784703 | 19.44° C | 99% | 1015.6 hPa | 1.27 mm | - | 0 W/m² | - |
* Rain latest hour (hover to see other rain measurements)
** Current wind speed in m/s (hover to see current wind gust speed)